DW8501 Madrid ES current weather conditions

sailwx.info

Wind from 306 at 6 knots gusting 11

Air temperature 27.8° C
Dewpoint 8.6° C

Last reported at 2015-Aug-04 00:50 UTC.
Time now 2015-Aug-04 01:27 UTC

Location: N 40°27' W 003°35'.
View on Google Maps.

See reports from other nearby stations

  
Tides and Currents Weather Stations Pressure Air Temp Water Temp Dewpoint Dewpoint Depression Visibility Wind Speed Wind Dir Waves Ship Positions
date/time (UTC)wind fromknots sea level pressurealtimeterstation pressurevisibilityair tempwater tempwave heightnotes
2015-Aug-04 00:50 306 6 gusting 11 27.8
2015-Aug-04 00:45 278 5 gusting 13 27.8
2015-Aug-04 00:40 272 5 gusting 13 27.8
2015-Aug-04 00:35 285 4 gusting 14 27.8
2015-Aug-04 00:30 292 6 gusting 14 27.8
2015-Aug-04 00:25 298 10 gusting 14 27.8
2015-Aug-04 00:20 290 6 gusting 13 27.8
2015-Aug-04 00:15 292 8 gusting 14 28.3
2015-Aug-04 00:10 290 7 gusting 14 28.3
2015-Aug-04 00:05 280 5 gusting 7 28.3
2015-Aug-04 00:00 277 5 gusting 7 28.3
2015-Aug-03 23:55 267 3 gusting 6 28.3
2015-Aug-03 23:50 230 3 gusting 6 28.3
2015-Aug-03 23:45 199 5 gusting 6 27.8
2015-Aug-03 23:40 179 3 gusting 6 27.8
2015-Aug-03 23:35 192 3 gusting 6 27.8
2015-Aug-03 23:30 217 1 gusting 5 27.8
2015-Aug-03 23:25 194 1 gusting 4 27.8
2015-Aug-03 23:20 185 1 gusting 4 27.8
2015-Aug-03 23:15 183 2 gusting 4 27.8
2015-Aug-03 23:10 174 1 gusting 3 28.3
2015-Aug-03 23:05 182 1 gusting 3 28.3
2015-Aug-03 23:00 144 0 gusting 4 28.3
2015-Aug-03 22:55 115 2 gusting 4 28.9
2015-Aug-03 22:50 153 2 gusting 6 29.4
2015-Aug-03 22:45 202 3 gusting 6 29.4
2015-Aug-03 22:40 209 4 gusting 7 29.4
2015-Aug-03 22:35 228 4 gusting 9 30.0
2015-Aug-03 22:30 246 3 gusting 9 30.0
2015-Aug-03 22:25 238 7 gusting 9 30.0
2015-Aug-03 22:20 227 4 gusting 9 30.0
2015-Aug-03 22:15 239 5 gusting 9 30.0
2015-Aug-03 22:10 260 5 gusting 8 30.0
2015-Aug-03 22:05 251 6 gusting 9 30.0
2015-Aug-03 22:00 227 6 gusting 9 30.0
2015-Aug-03 21:55 230 6 gusting 9 30.0
2015-Aug-03 21:50 238 6 gusting 9 30.6
2015-Aug-03 21:45 255 6 gusting 10 30.6
2015-Aug-03 21:40 251 6 gusting 10 30.6
2015-Aug-03 21:35 253 6 gusting 9 30.6
2015-Aug-03 21:30 270 6 gusting 9 30.6
2015-Aug-03 21:25 266 6 gusting 9 30.6
2015-Aug-03 21:20 254 5 gusting 9 30.6
2015-Aug-03 21:15 263 4 gusting 11 30.6
2015-Aug-03 21:10 263 6 gusting 11 30.6
2015-Aug-03 21:05 278 8 gusting 11 30.6
2015-Aug-03 21:00 308 6 gusting 13 31.1
2015-Aug-03 20:55 285 7 gusting 13 31.1
2015-Aug-03 20:50 261 6 gusting 13 31.1
2015-Aug-03 20:45 279 5 gusting 12 31.1
2015-Aug-03 20:40 300 7 gusting 12 31.1
2015-Aug-03 20:35 293 5 gusting 12 31.1
2015-Aug-03 20:30 292 7 gusting 12 31.1
2015-Aug-03 20:25 256 9 gusting 14 31.1
2015-Aug-03 20:20 244 7 gusting 14 31.1
2015-Aug-03 20:15 266 9 gusting 14 31.1
2015-Aug-03 20:10 270 5 gusting 14 31.7
2015-Aug-03 20:05 274 8 gusting 13 31.7
2015-Aug-03 20:00 275 8 gusting 13 31.7
2015-Aug-03 19:55 274 8 gusting 13 31.7
2015-Aug-03 19:50 293 6 gusting 14 31.7
2015-Aug-03 19:45 289 10 gusting 14 31.7
2015-Aug-03 19:40 278 5 gusting 13 31.7
2015-Aug-03 19:35 282 6 gusting 19 31.7
2015-Aug-03 19:30 285 8 gusting 19 31.7
2015-Aug-03 19:25 288 8 gusting 19 32.2
2015-Aug-03 19:20 286 13 gusting 19 32.2
2015-Aug-03 19:15 270 10 gusting 16 32.2
2015-Aug-03 19:10 279 9 gusting 13 32.2
2015-Aug-03 19:05 309 8 gusting 18 32.8
2015-Aug-03 19:00 299 6 gusting 18 32.8
2015-Aug-03 18:55 294 11 gusting 18 32.8
2015-Aug-03 18:50 273 13 gusting 18 32.8
2015-Aug-03 18:45 242 16 gusting 18 32.8
2015-Aug-03 18:40 266 11 gusting 19 33.3
2015-Aug-03 18:35 303 9 gusting 19 32.8
2015-Aug-03 18:30 291 13 gusting 19 32.8
2015-Aug-03 18:25 267 13 gusting 19 32.8
2015-Aug-03 18:20 282 11 gusting 17 33.3
2015-Aug-03 18:15 297 10 gusting 25 33.3
2015-Aug-03 18:10 280 9 gusting 25 33.9
2015-Aug-03 18:05 264 19 gusting 25 33.9
2015-Aug-03 18:00 298 12 gusting 20 33.9
2015-Aug-03 17:55 308 6 gusting 20 33.9
2015-Aug-03 17:50 302 13 gusting 17 33.9
2015-Aug-03 17:45 268 9 gusting 17 33.9
2015-Aug-03 17:40 257 12 gusting 15 33.9
2015-Aug-03 17:35 270 9 gusting 16 33.9
2015-Aug-03 17:30 264 9 gusting 18 34.4
2015-Aug-03 17:25 281 13 gusting 18 34.4
2015-Aug-03 17:20 286 13 gusting 18 35.0
2015-Aug-03 17:15 291 10 gusting 17 35.0
2015-Aug-03 17:10 272 9 gusting 13 35.0
2015-Aug-03 17:05 268 9 gusting 13 35.6
2015-Aug-03 17:00 285 9 gusting 13 35.6
2015-Aug-03 16:55 264 6 gusting 15 35.0
2015-Aug-03 16:50 274 9 gusting 19 35.0
2015-Aug-03 16:45 274 13 gusting 19 35.0
2015-Aug-03 16:40 248 6 gusting 11 35.0
2015-Aug-03 16:35 267 9 gusting 13 35.0
2015-Aug-03 16:30 289 6 gusting 16 34.4
2015-Aug-03 16:25 313 9 gusting 16 34.4
2015-Aug-03 16:20 307 7 gusting 14 35.0
2015-Aug-03 16:15 266 6 gusting 14 35.6
2015-Aug-03 16:10 259 13 gusting 17 35.6
2015-Aug-03 16:05 281 9 gusting 18 35.0
2015-Aug-03 16:00 265 13 gusting 18 35.0
2015-Aug-03 15:55 242 10 gusting 16 35.6
2015-Aug-03 15:50 254 7 gusting 14 36.1
2015-Aug-03 15:45 251 5 gusting 12 36.1
2015-Aug-03 15:40 35.0
2015-Aug-03 15:35 230 4 gusting 15 34.4
2015-Aug-03 15:30 244 13 gusting 18 34.4
2015-Aug-03 15:25 278 9 gusting 19 35.0
2015-Aug-03 15:20 256 15 gusting 19 35.0
2015-Aug-03 15:15 251 6 gusting 15 35.0
2015-Aug-03 15:10 249 13 gusting 15 35.0
2015-Aug-03 15:05 247 10 gusting 14 35.0
2015-Aug-03 15:00 261 4 gusting 13 33.9
2015-Aug-03 14:55 267 8 gusting 16 33.9
2015-Aug-03 14:50 279 12 gusting 16 33.9
2015-Aug-03 14:45 266 6 gusting 14 34.4
2015-Aug-03 14:40 274 11 gusting 14 34.4
2015-Aug-03 14:35 272 7 gusting 14 34.4
2015-Aug-03 14:30 271 7 gusting 19 34.4
2015-Aug-03 14:25 285 14 gusting 19 34.4
2015-Aug-03 14:20 270 3 gusting 14 34.4
2015-Aug-03 14:15 258 9 gusting 14 35.0
2015-Aug-03 14:10 245 8 gusting 15 35.0
2015-Aug-03 14:05 259 6 gusting 15 34.4
2015-Aug-03 14:00 273 13 gusting 15 34.4
2015-Aug-03 13:55 254 3 gusting 17 34.4
2015-Aug-03 13:50 243 6 gusting 17 34.4
2015-Aug-03 13:45 259 8 gusting 13 35.0
2015-Aug-03 13:40 249 9 gusting 16 34.4
2015-Aug-03 13:35 260 2 gusting 18 33.9
2015-Aug-03 13:30 263 13 gusting 18 33.9
2015-Aug-03 13:25 245 13 gusting 18 33.9
2015-Aug-03 13:20 251 8 gusting 18 33.9
2015-Aug-03 13:15 254 9 gusting 19 33.9
2015-Aug-03 13:10 246 8 gusting 19 33.9
2015-Aug-03 13:05 222 13 gusting 19 34.4
2015-Aug-03 13:00 225 8 gusting 23 34.4
2015-Aug-03 12:55 245 13 gusting 23 33.9
2015-Aug-03 12:50 252 14 gusting 19 33.9
2015-Aug-03 12:45 219 7 gusting 18 33.9
2015-Aug-03 12:40 212 10 gusting 18 33.9
2015-Aug-03 12:35 225 6 gusting 16 33.9
2015-Aug-03 12:30 220 12 gusting 16 33.3
2015-Aug-03 12:25 226 8 gusting 14 32.8
2015-Aug-03 12:20 212 12 gusting 14 33.3
2015-Aug-03 12:15 196 3 gusting 14 33.3
2015-Aug-03 12:10 217 4 gusting 14 32.8
2015-Aug-03 12:05 227 4 gusting 13 32.8
2015-Aug-03 12:00 219 7 gusting 13 32.8
2015-Aug-03 11:55 222 5 gusting 14 32.2
2015-Aug-03 11:50 222 6 gusting 14 31.7
2015-Aug-03 11:45 215 6 gusting 8 31.7
2015-Aug-03 11:40 236 4 gusting 8 31.7
2015-Aug-03 11:35 216 4 gusting 8 31.7
2015-Aug-03 11:30 200 3 gusting 10 31.7
2015-Aug-03 11:25 217 3 gusting 10 32.2
2015-Aug-03 11:20 222 3 gusting 10 32.2
2015-Aug-03 11:15 208 3 gusting 6 32.2
2015-Aug-03 11:10 170 1 gusting 9 32.2
2015-Aug-03 11:05 163 2 gusting 9 32.2
2015-Aug-03 11:00 181 2 gusting 5 32.2
2015-Aug-03 10:55 186 3 gusting 8 32.2
2015-Aug-03 10:50 185 3 gusting 8 32.2
2015-Aug-03 10:45 198 1 gusting 6 32.2
2015-Aug-03 10:40 201 1 gusting 6 31.7
2015-Aug-03 10:35 191 2 gusting 6 32.2
2015-Aug-03 10:30 210 1 gusting 6 31.1
2015-Aug-03 10:25 218 0 gusting 7 30.6
2015-Aug-03 10:20 155 5 gusting 7 31.1
2015-Aug-03 10:15 099 0 gusting 6 30.6
2015-Aug-03 10:10 066 1 gusting 6 30.0
2015-Aug-03 10:05 064 4 gusting 7 30.0
2015-Aug-03 10:00 082 3 gusting 7 30.0
2015-Aug-03 09:55 075 4 gusting 6 30.0
2015-Aug-03 09:50 033 3 gusting 6 29.4
2015-Aug-03 09:45 033 1 gusting 7 28.9
2015-Aug-03 09:40 036 2 gusting 7 28.9
2015-Aug-03 09:35 055 6 gusting 7 29.4
2015-Aug-03 09:30 090 0 gusting 6 28.9
2015-Aug-03 09:25 096 4 gusting 6 28.3
2015-Aug-03 09:20 104 3 gusting 6 28.3
2015-Aug-03 09:15 084 3 gusting 9 28.3
2015-Aug-03 09:10 053 3 gusting 9 27.8
2015-Aug-03 09:05 038 4 gusting 10 27.8
2015-Aug-03 09:00 041 6 gusting 10 27.8
2015-Aug-03 08:55 094 2 gusting 6 27.8
2015-Aug-03 08:50 069 1 gusting 7 27.2
2015-Aug-03 08:45 039 3 gusting 7 26.7
2015-Aug-03 08:40 049 6 gusting 10 26.7
2015-Aug-03 08:35 070 1 gusting 10 26.7
2015-Aug-03 08:30 057 5 gusting 9 26.1
2015-Aug-03 08:25 046 6 gusting 9 26.1
2015-Aug-03 08:20 056 6 gusting 7 26.1
2015-Aug-03 08:15 062 4 gusting 7 26.1
2015-Aug-03 08:10 052 3 gusting 7 26.1
2015-Aug-03 08:05 062 5 gusting 6 26.1
2015-Aug-03 08:00 061 2 gusting 6 26.1
2015-Aug-03 07:55 053 3 gusting 6 25.6
2015-Aug-03 07:50 051 2 gusting 6 25.6
2015-Aug-03 07:45 033 3 gusting 6 25.0
2015-Aug-03 07:40 021 3 gusting 6 25.6
2015-Aug-03 07:35 036 0 gusting 6 25.0
2015-Aug-03 07:30 041 3 gusting 6 24.4
2015-Aug-03 07:25 031 3 gusting 5 24.4
2015-Aug-03 07:20 023 3 gusting 6 24.4
2015-Aug-03 07:15 029 2 gusting 6 24.4
2015-Aug-03 07:10 027 3 gusting 5 23.9
2015-Aug-03 07:05 030 3 gusting 6 23.9
2015-Aug-03 07:00 036 4 gusting 6 23.3
2015-Aug-03 06:55 037 3 gusting 5 23.3
2015-Aug-03 06:50 043 4 gusting 6 23.9
2015-Aug-03 06:45 034 3 gusting 6 23.3
2015-Aug-03 06:40 031 3 gusting 6 23.3
2015-Aug-03 06:35 039 3 gusting 5 23.3
2015-Aug-03 06:30 036 3 gusting 5 23.3
2015-Aug-03 06:25 038 3 gusting 5 23.3
2015-Aug-03 06:20 036 3 gusting 4 22.8
2015-Aug-03 06:15 028 3 gusting 4 22.8
2015-Aug-03 06:10 026 1 gusting 3 22.8
2015-Aug-03 06:05 017 1 gusting 3 22.2
2015-Aug-03 06:00 345 2 gusting 3 22.2
2015-Aug-03 05:55 331 0 gusting 3 21.7
2015-Aug-03 05:50 329 1 gusting 3 21.7
2015-Aug-03 05:45 314 1 gusting 3 21.7
2015-Aug-03 05:40 313 1 gusting 3 21.7
2015-Aug-03 05:35 319 1 gusting 3 21.7
2015-Aug-03 05:30 330 1 gusting 3 21.7
2015-Aug-03 05:25 330 2 gusting 3 21.7
2015-Aug-03 05:20 317 1 gusting 3 21.7
2015-Aug-03 05:15 325 1 gusting 3 21.7
2015-Aug-03 05:10 343 1 gusting 3 21.7
2015-Aug-03 05:05 356 1 gusting 4 22.2
2015-Aug-03 05:00 002 2 gusting 4 22.2
2015-Aug-03 04:55 010 2 gusting 3 22.2
2015-Aug-03 04:50 016 2 gusting 3 22.2
2015-Aug-03 04:45 027 1 gusting 3 22.2
2015-Aug-03 04:40 022 2 gusting 3 22.2
2015-Aug-03 04:35 354 2 gusting 3 22.2
2015-Aug-03 04:30 004 1 gusting 3 22.2
2015-Aug-03 04:25 026 1 gusting 4 22.2
2015-Aug-03 04:20 034 2 gusting 4 22.2
2015-Aug-03 04:15 041 3 gusting 5 22.8
2015-Aug-03 04:10 034 3 gusting 5 22.8
2015-Aug-03 04:05 025 4 gusting 5 22.8
2015-Aug-03 04:00 038 2 gusting 5 22.8
2015-Aug-03 03:55 044 3 gusting 5 22.8
2015-Aug-03 03:50 024 1 gusting 2 22.8
2015-Aug-03 03:45 340 1 gusting 2 22.8
2015-Aug-03 03:40 311 1 gusting 2 22.8
2015-Aug-03 03:35 308 1 gusting 1 22.8
2015-Aug-03 03:30 336 0 gusting 1 22.8
2015-Aug-03 03:25 025 1 gusting 1 22.8
2015-Aug-03 03:20 045 0 gusting 1 22.8
2015-Aug-03 03:15 041 0 gusting 1 22.8
2015-Aug-03 03:10 23.3
2015-Aug-03 03:05 051 1 gusting 2 23.3
2015-Aug-03 03:00 051 0 gusting 2 23.3
2015-Aug-03 02:55 23.3
2015-Aug-03 02:50 144 0 gusting 1 23.3
2015-Aug-03 02:45 23.3
2015-Aug-03 02:40 23.3
2015-Aug-03 02:35 085 0 gusting 1 23.9
2015-Aug-03 02:30 095 1 gusting 1 23.9
2015-Aug-03 02:25 23.9
2015-Aug-03 02:20 116 0 gusting 1 23.9
2015-Aug-03 02:15 101 0 gusting 1 23.9
2015-Aug-03 02:10 090 0 gusting 1 23.9
2015-Aug-03 02:05 093 1 gusting 2 24.4
2015-Aug-03 02:00 092 1 gusting 3 24.4
2015-Aug-03 01:55 088 1 gusting 3 24.4
2015-Aug-03 01:50 089 2 gusting 3 24.4
2015-Aug-03 01:45 096 1 gusting 2 24.4
2015-Aug-03 01:40 102 1 gusting 1 24.4
2015-Aug-03 01:35 099 0 gusting 1 24.4
2015-Aug-03 01:30 084 0 gusting 2 24.4
2015-Aug-03 01:25 084 0 gusting 3 24.4
2015-Aug-03 01:20 091 1 gusting 3 24.4
2015-Aug-03 01:15 090 1 gusting 3 24.4
2015-Aug-03 01:10 106 2 gusting 3 25.0
2015-Aug-03 01:05 113 1 gusting 3 25.0
2015-Aug-03 01:00 117 1 gusting 2 25.0
2015-Aug-03 00:55 156 1 gusting 1 25.0
2015-Aug-03 00:50 25.0
2015-Aug-03 00:45 207 0 gusting 1 25.6
2015-Aug-03 00:40 196 0 gusting 1 25.6
2015-Aug-03 00:35 195 0 gusting 1 25.6
2015-Aug-03 00:30 25.6
2015-Aug-03 00:25 25.6
2015-Aug-03 00:20 217 0 gusting 1 25.6
2015-Aug-03 00:15 296 0 gusting 1 25.6
2015-Aug-03 00:10 314 0 gusting 1 25.6
2015-Aug-03 00:05 25.6
2015-Aug-03 00:00 25.6
2015-Aug-02 23:55 242 1 gusting 1 26.1
2015-Aug-02 23:50 263 1 gusting 1 26.1
2015-Aug-02 23:45 297 1 gusting 1 26.1
2015-Aug-02 23:40 26.1
2015-Aug-02 23:35 26.7
2015-Aug-02 23:30 126 0 gusting 3 26.7
2015-Aug-02 23:25 114 0 gusting 3 26.7
2015-Aug-02 23:20 117 0 gusting 3 26.7
2015-Aug-02 23:15 140 1 gusting 3 26.7
2015-Aug-02 23:10 146 2 gusting 3 26.7
2015-Aug-02 23:05 156 1 gusting 3 26.7
2015-Aug-02 23:00 185 2 gusting 3 26.7
2015-Aug-02 22:55 225 0 gusting 1 26.7
2015-Aug-02 22:50 26.7
2015-Aug-02 22:45 26.7
2015-Aug-02 22:40 27.2
2015-Aug-02 22:35 27.2
2015-Aug-02 22:30 27.8
2015-Aug-02 22:25 27.8
2015-Aug-02 22:20 210 0 gusting 1 27.8
2015-Aug-02 22:15 27.8
2015-Aug-02 22:10 120 0 gusting 3 27.2
2015-Aug-02 22:05 27.8
2015-Aug-02 22:00 27.8
2015-Aug-02 21:55 27.8
2015-Aug-02 21:50 28.3
2015-Aug-02 21:45 28.3
2015-Aug-02 21:40 28.3
2015-Aug-02 21:35 153 0 gusting 1 28.3
2015-Aug-02 21:30 28.9
2015-Aug-02 21:25 29.4
2015-Aug-02 21:20 176 0 gusting 3 30.0
2015-Aug-02 21:15 182 3 gusting 4 30.0
2015-Aug-02 21:10 203 2 gusting 4 30.0
2015-Aug-02 21:05 203 3 gusting 4 30.6
2015-Aug-02 21:00 198 1 gusting 5 30.6
2015-Aug-02 20:55 197 3 gusting 5 30.0
2015-Aug-02 20:50 188 3 gusting 5 30.0
2015-Aug-02 20:45 192 2 gusting 4 30.0
2015-Aug-02 20:40 191 3 gusting 4 30.0
2015-Aug-02 20:35 209 2 gusting 3 30.6
2015-Aug-02 20:30 220 2 gusting 3 30.6
2015-Aug-02 20:25 197 3 gusting 3 30.6
2015-Aug-02 20:20 201 2 gusting 3 30.6
2015-Aug-02 20:15 202 1 gusting 2 30.6
2015-Aug-02 20:10 185 1 gusting 2 30.6
2015-Aug-02 20:05 191 2 gusting 3 31.1
2015-Aug-02 20:00 208 2 gusting 3 31.1
2015-Aug-02 19:55 211 1 gusting 3 31.1
2015-Aug-02 19:50 221 1 gusting 3 31.7
2015-Aug-02 19:45 221 1 gusting 3 32.2
2015-Aug-02 19:40 215 1 gusting 3 32.2
2015-Aug-02 19:35 220 1 gusting 3 32.2
2015-Aug-02 19:30 232 2 gusting 5 32.2
2015-Aug-02 19:25 234 2 gusting 5 32.8
2015-Aug-02 19:20 225 4 gusting 5 32.8
2015-Aug-02 19:15 220 2 gusting 4 33.3
2015-Aug-02 19:10 225 3 gusting 4 33.3
2015-Aug-02 19:05 224 3 gusting 4 33.3
2015-Aug-02 19:00 229 3 gusting 5 33.9
2015-Aug-02 18:55 230 2 gusting 6 33.9
2015-Aug-02 18:50 225 3 gusting 6 33.9
2015-Aug-02 18:45 238 4 gusting 8 33.9
2015-Aug-02 18:40 243 4 gusting 8 33.9
2015-Aug-02 18:35 217 5 gusting 9 34.4
2015-Aug-02 18:30 240 3 gusting 9 33.9
2015-Aug-02 18:25 277 6 gusting 9 34.4
2015-Aug-02 18:20 228 1 gusting 9 33.9
2015-Aug-02 18:15 229 6 gusting 13 33.9
2015-Aug-02 18:10 246 6 gusting 13 34.4
2015-Aug-02 18:05 246 6 gusting 13 34.4
2015-Aug-02 18:00 249 6 gusting 13 34.4
2015-Aug-02 17:55 257 2 gusting 12 33.9
2015-Aug-02 17:50 275 8 gusting 12 34.4
2015-Aug-02 17:45 285 9 gusting 12 34.4
2015-Aug-02 17:40 230 3 gusting 7 34.4
2015-Aug-02 17:35 215 6 gusting 10 34.4
2015-Aug-02 17:30 253 6 gusting 10 34.4
2015-Aug-02 17:25 274 7 gusting 13 33.9
2015-Aug-02 17:20 257 6 gusting 13 34.4
2015-Aug-02 17:15 246 11 gusting 17 34.4
2015-Aug-02 17:10 274 9 gusting 17 33.9
2015-Aug-02 17:05 298 13 gusting 17 34.4
2015-Aug-02 17:00 260 11 gusting 13 33.9
2015-Aug-02 16:55 241 7 gusting 13 34.4
2015-Aug-02 16:50 238 7 gusting 13 34.4
2015-Aug-02 16:45 212 3 gusting 10 34.4
2015-Aug-02 16:40 221 6 gusting 13 34.4
2015-Aug-02 16:35 229 6 gusting 16 33.9
2015-Aug-02 16:30 224 8 gusting 16 33.9
2015-Aug-02 16:25 231 11 gusting 15 34.4
2015-Aug-02 16:20 248 6 gusting 13 34.4
2015-Aug-02 16:15 254 0 gusting 16 33.9
2015-Aug-02 16:10 255 7 gusting 16 33.9
2015-Aug-02 16:05 248 6 gusting 11 33.9
2015-Aug-02 16:00 257 6 gusting 13 33.9
2015-Aug-02 15:55 254 7 gusting 13 33.3
2015-Aug-02 15:50 247 9 gusting 13 33.3
2015-Aug-02 15:45 298 6 gusting 11 33.9
2015-Aug-02 15:41 333 5 gusting 10 33.9
2015-Aug-02 15:35 300 4 gusting 13 33.3
2015-Aug-02 15:31 293 8 gusting 13 33.3
2015-Aug-02 15:25 289 9 gusting 13 33.9
2015-Aug-02 15:20 264 6 gusting 11 33.9
2015-Aug-02 15:05 288 13 gusting 19 33.3
2015-Aug-02 15:00 243 6 gusting 13 33.9
2015-Aug-02 14:55 222 5 gusting 11 33.9
2015-Aug-02 14:50 236 8 gusting 11 33.3
2015-Aug-02 14:45 224 3 gusting 13 33.3
2015-Aug-02 14:40 216 6 gusting 13 33.3
2015-Aug-02 14:35 244 8 gusting 11 33.3
2015-Aug-02 14:30 257 5 gusting 12 33.3
2015-Aug-02 14:25 255 6 gusting 14 32.2
2015-Aug-02 14:20 245 6 gusting 14 32.2
2015-Aug-02 14:15 227 6 gusting 14 32.8
2015-Aug-02 14:10 195 6 gusting 14 33.3
2015-Aug-02 14:05 190 6 gusting 10 32.2
2015-Aug-02 14:00 283 6 gusting 16 32.2
2015-Aug-02 13:55 303 5 gusting 16 31.7
2015-Aug-02 13:50 260 8 gusting 13 32.2
2015-Aug-02 13:45 234 3 gusting 13 31.7
2015-Aug-02 13:40 248 7 gusting 13 31.7
2015-Aug-02 13:35 252 12 gusting 13 31.7
2015-Aug-02 13:30 247 6 gusting 14 31.1
2015-Aug-02 13:25 239 6 gusting 14 31.1
2015-Aug-02 13:20 245 6 gusting 13 31.1
2015-Aug-02 13:15 263 10 gusting 13 31.1
2015-Aug-02 13:10 290 6 gusting 11 31.1
2015-Aug-02 13:05 285 4 gusting 9 31.1
2015-Aug-02 13:00 264 6 gusting 9 31.7
2015-Aug-02 12:55 250 7 gusting 10 31.7
2015-Aug-02 12:50 229 6 gusting 10 32.2
2015-Aug-02 12:45 231 1 gusting 7 32.8
2015-Aug-02 12:40 246 1 gusting 8 31.7
2015-Aug-02 12:35 243 6 gusting 8 31.1
2015-Aug-02 12:30 208 0 gusting 10 31.1
2015-Aug-02 12:25 200 2 gusting 10 30.6
2015-Aug-02 12:20 217 4 gusting 7 31.1
2015-Aug-02 12:15 148 5 gusting 7 31.7
2015-Aug-02 12:10 136 1 gusting 5 30.6
2015-Aug-02 12:05 134 3 gusting 6 30.0
2015-Aug-02 12:00 097 3 gusting 8 30.0
2015-Aug-02 11:55 071 1 gusting 8 30.0
2015-Aug-02 11:50 093 2 gusting 9 29.4
2015-Aug-02 11:45 099 3 gusting 9 30.0
2015-Aug-02 11:40 119 1 gusting 5 29.4
2015-Aug-02 11:35 069 1 gusting 8 28.9
2015-Aug-02 11:30 032 3 gusting 8 28.3
2015-Aug-02 11:25 026 4 gusting 8 28.3
2015-Aug-02 11:20 058 5 gusting 8 28.3
2015-Aug-02 11:15 124 1 gusting 6 28.3
2015-Aug-02 11:10 199 5 gusting 6 28.9
2015-Aug-02 11:05 156 3 gusting 6 28.3
2015-Aug-02 11:00 112 1 gusting 6 28.3
2015-Aug-02 10:55 091 2 gusting 4 28.9
2015-Aug-02 10:50 096 3 gusting 7 28.9
2015-Aug-02 10:45 085 0 gusting 7 27.8
2015-Aug-02 10:40 085 6 gusting 7 28.3
2015-Aug-02 10:35 095 1 gusting 7 27.8
2015-Aug-02 10:30 117 3 gusting 7 27.8
2015-Aug-02 10:25 144 3 gusting 7 27.8
2015-Aug-02 10:20 156 1 gusting 7 27.2
2015-Aug-02 10:15 156 1 gusting 7 26.7
2015-Aug-02 10:10 065 2 gusting 7 26.7
2015-Aug-02 10:05 055 5 gusting 7 26.1
2015-Aug-02 10:00 089 5 gusting 9 26.1
2015-Aug-02 09:55 109 5 gusting 9 26.7
2015-Aug-02 09:51 120 4 gusting 6 27.8
2015-Aug-02 09:45 126 0 gusting 6 26.7
2015-Aug-02 09:40 101 1 gusting 6 26.7
2015-Aug-02 09:35 120 2 gusting 6 26.7
2015-Aug-02 09:30 114 1 gusting 9 25.6
2015-Aug-02 09:25 083 2 gusting 9 25.0
2015-Aug-02 09:20 074 6 gusting 9 24.4
2015-Aug-02 09:15 065 6 gusting 8 25.0
2015-Aug-02 09:10 075 3 gusting 7 25.0
2015-Aug-02 09:05 095 1 gusting 8 25.0
2015-Aug-02 09:00 118 5 gusting 8 25.6
2015-Aug-02 08:55 100 1 gusting 8 25.0
2015-Aug-02 08:50 089 6 gusting 9 25.0
2015-Aug-02 08:45 086 0 gusting 11 23.9
2015-Aug-02 08:40 073 7 gusting 11 23.9
2015-Aug-02 08:35 051 6 gusting 7 24.4
2015-Aug-02 08:30 109 2 gusting 7 23.9
2015-Aug-02 08:25 115 5 gusting 7 23.9
2015-Aug-02 08:20 138 1 gusting 7 23.9
2015-Aug-02 08:15 139 5 gusting 9 23.3
2015-Aug-02 08:10 060 3 gusting 9 23.3
2015-Aug-02 08:05 056 6 gusting 11 22.8
2015-Aug-02 08:00 068 6 gusting 11 22.8
2015-Aug-02 07:55 083 4 gusting 9 22.2
2015-Aug-02 07:50 085 5 gusting 9 22.2
2015-Aug-02 07:45 074 4 gusting 8 22.2
2015-Aug-02 07:40 087 3 gusting 10 22.2
2015-Aug-02 07:35 093 6 gusting 11 22.2
2015-Aug-02 07:30 091 8 gusting 11 22.2
2015-Aug-02 07:25 090 6 gusting 10 21.7
2015-Aug-02 07:20 089 6 gusting 7 21.7
2015-Aug-02 07:15 089 6 gusting 7 21.1
2015-Aug-02 07:10 093 3 gusting 8 21.1
2015-Aug-02 07:05 094 1 gusting 9 20.6
2015-Aug-02 07:00 092 4 gusting 9 21.1
2015-Aug-02 06:55 094 7 gusting 9 21.1
2015-Aug-02 06:50 090 6 gusting 8 21.1
2015-Aug-02 06:45 087 6 gusting 7 21.7
2015-Aug-02 06:40 098 6 gusting 7 21.7
2015-Aug-02 06:35 112 4 gusting 6 21.1
2015-Aug-02 06:30 102 1 gusting 6 21.1
2015-Aug-02 06:25 092 1 gusting 7 20.6
2015-Aug-02 06:20 088 4 gusting 7 20.0
2015-Aug-02 06:15 096 2 gusting 6 20.0
2015-Aug-02 06:10 124 1 gusting 6 20.0
2015-Aug-02 06:05 118 1 gusting 4 20.0
2015-Aug-02 06:00 090 1 gusting 5 20.0
2015-Aug-02 05:55 097 3 gusting 5 20.0
2015-Aug-02 05:50 103 3 gusting 6 20.0
2015-Aug-02 05:45 090 3 gusting 6 20.0
2015-Aug-02 05:40 088 3 gusting 6 20.0
2015-Aug-02 05:35 085 3 gusting 6 20.0
2015-Aug-02 05:30 091 4 gusting 6 20.0
2015-Aug-02 05:25 097 3 gusting 5 20.0
2015-Aug-02 05:20 098 2 gusting 5 20.6
2015-Aug-02 05:15 099 2 gusting 4 20.6
2015-Aug-02 05:10 089 3 gusting 4 20.6
2015-Aug-02 05:05 096 1 gusting 4 20.6
2015-Aug-02 05:00 096 3 gusting 6 20.6
2015-Aug-02 04:55 096 3 gusting 6 20.6
2015-Aug-02 04:50 104 1 gusting 6 20.6
2015-Aug-02 04:45 105 4 gusting 6 20.6
2015-Aug-02 04:40 106 4 gusting 6 20.6
2015-Aug-02 04:35 073 1 gusting 6 21.1
2015-Aug-02 04:30 052 2 gusting 6 21.1
2015-Aug-02 04:25 051 4 gusting 6 21.1
2015-Aug-02 04:20 048 5 gusting 7 21.1
2015-Aug-02 04:15 043 3 gusting 7 21.1
2015-Aug-02 04:10 046 6 gusting 7 21.1
2015-Aug-02 04:05 064 6 gusting 6 21.1
2015-Aug-02 04:00 100 3 gusting 6 21.1
2015-Aug-02 03:55 112 1 gusting 2 21.1
2015-Aug-02 03:50 114 1 gusting 3 21.1
2015-Aug-02 03:45 134 0 gusting 3 21.1
2015-Aug-02 03:40 144 0 gusting 2 21.1
2015-Aug-02 03:35 156 0 gusting 3 21.1
2015-Aug-02 03:30 141 0 gusting 6 21.1
2015-Aug-02 03:25 132 1 gusting 6 21.1
2015-Aug-02 03:20 132 2 gusting 6 21.1
2015-Aug-02 03:15 130 3 gusting 4 21.1
2015-Aug-02 03:10 132 1 gusting 5 21.1
2015-Aug-02 03:05 121 1 gusting 5 21.1
2015-Aug-02 03:00 085 1 gusting 6 21.1
2015-Aug-02 02:55 065 1 gusting 6 21.1
2015-Aug-02 02:50 082 3 gusting 5 21.1
2015-Aug-02 02:45 105 0 gusting 3 21.1
2015-Aug-02 02:40 091 2 gusting 3 21.1
2015-Aug-02 02:35 097 1 gusting 3 21.1
2015-Aug-02 02:30 124 1 gusting 2 21.1
2015-Aug-02 02:25 139 0 gusting 5 21.1
2015-Aug-02 02:20 161 0 gusting 6 21.1
2015-Aug-02 02:15 135 1 gusting 6 21.1
2015-Aug-02 02:10 095 1 gusting 5 21.7
2015-Aug-02 02:05 111 4 gusting 6 21.7
2015-Aug-02 02:00 137 4 gusting 6 21.7
2015-Aug-02 01:55 118 3 gusting 6 21.7
2015-Aug-02 01:50 113 2 gusting 7 21.7
2015-Aug-02 01:45 108 3 gusting 7 21.7
2015-Aug-02 01:40 101 3 gusting 9 21.7
2015-Aug-02 01:35 104 4 gusting 9 21.7
2015-Aug-02 01:30 106 3 gusting 8 22.2
2015-Aug-02 01:25 137 2 gusting 6 22.2
2015-Aug-02 01:20 152 3 gusting 7 22.2
2015-Aug-02 01:15 148 1 gusting 8 22.2
2015-Aug-02 01:10 133 3 gusting 9 22.2
2015-Aug-02 01:06 124 3 gusting 9 22.2
2015-Aug-02 01:00 121 3 gusting 6 22.2